Year,Month,Day,Hour,Minute,Value (Times are PST for temperature in C)
2009,08,19,00,00,16.50
2009,08,19,00,01,16.40
2009,08,19,00,02,16.40
2009,08,19,00,03,16.40
2009,08,19,00,04,16.40
2009,08,19,00,05,16.40
2009,08,19,00,06,16.40
2009,08,19,00,07,16.40
2009,08,19,00,08,16.40
2009,08,19,00,09,16.40
2009,08,19,00,10,16.30
2009,08,19,00,11,16.30
2009,08,19,00,12,16.30
2009,08,19,00,13,16.30
2009,08,19,00,14,16.30
2009,08,19,00,15,16.30
2009,08,19,00,16,16.30
2009,08,19,00,17,16.30
2009,08,19,00,18,16.30
2009,08,19,00,19,16.30
2009,08,19,00,20,16.30
2009,08,19,00,21,16.30
2009,08,19,00,22,16.30
2009,08,19,00,23,16.30
2009,08,19,00,24,16.30
2009,08,19,00,25,16.30
2009,08,19,00,26,16.20
2009,08,19,00,27,16.20
2009,08,19,00,28,16.20
2009,08,19,00,29,16.20
2009,08,19,00,30,16.20
2009,08,19,00,31,16.20
2009,08,19,00,32,16.20
2009,08,19,00,33,16.20
2009,08,19,00,34,16.20
2009,08,19,00,35,16.10
2009,08,19,00,36,16.10
2009,08,19,00,37,16.10
2009,08,19,00,38,16.10
2009,08,19,00,39,16.10
2009,08,19,00,40,16.10
2009,08,19,00,41,16.00
2009,08,19,00,42,16.00
2009,08,19,00,43,16.00
2009,08,19,00,44,16.00
2009,08,19,00,45,15.90
2009,08,19,00,46,15.90
2009,08,19,00,47,15.90
2009,08,19,00,48,15.90
2009,08,19,00,49,15.90
2009,08,19,00,50,15.90
2009,08,19,00,51,15.80
2009,08,19,00,52,15.80
2009,08,19,00,53,15.80
2009,08,19,00,54,15.80
2009,08,19,00,55,15.80
2009,08,19,00,56,15.80
2009,08,19,00,57,15.80
2009,08,19,00,58,15.80
2009,08,19,00,59,15.80
2009,08,19,01,00,15.70
2009,08,19,01,01,15.70
2009,08,19,01,02,15.70
2009,08,19,01,03,15.70
2009,08,19,01,04,15.70
2009,08,19,01,05,15.70
2009,08,19,01,06,15.70
2009,08,19,01,07,15.70
2009,08,19,01,08,15.70
2009,08,19,01,09,15.70
2009,08,19,01,10,15.70
2009,08,19,01,11,15.70
2009,08,19,01,12,15.60
2009,08,19,01,13,15.60
2009,08,19,01,14,15.60
2009,08,19,01,15,15.60
2009,08,19,01,16,15.60
2009,08,19,01,17,15.60
2009,08,19,01,18,15.60
2009,08,19,01,19,15.60
2009,08,19,01,20,15.60
2009,08,19,01,21,15.60
2009,08,19,01,22,15.50
2009,08,19,01,23,15.50
2009,08,19,01,24,15.50
2009,08,19,01,25,15.50
2009,08,19,01,26,15.50
2009,08,19,01,27,15.50
2009,08,19,01,28,15.50
2009,08,19,01,29,15.50
2009,08,19,01,30,15.50
2009,08,19,01,31,15.50
2009,08,19,01,32,15.50
2009,08,19,01,33,15.50
2009,08,19,01,34,15.50
2009,08,19,01,35,15.50
2009,08,19,01,36,15.50
2009,08,19,01,37,15.50
2009,08,19,01,38,15.50
2009,08,19,01,39,15.50
2009,08,19,01,40,15.50
2009,08,19,01,41,15.50
2009,08,19,01,42,15.50
2009,08,19,01,43,15.50
2009,08,19,01,44,15.50
2009,08,19,01,45,15.50
2009,08,19,01,46,15.50
2009,08,19,01,47,15.50
2009,08,19,01,48,15.50
2009,08,19,01,49,15.50
2009,08,19,01,50,15.50
2009,08,19,01,51,15.40
2009,08,19,01,52,15.40
2009,08,19,01,53,15.40
2009,08,19,01,54,15.40
2009,08,19,01,55,15.40
2009,08,19,01,56,15.40
2009,08,19,01,57,15.40
2009,08,19,01,58,15.40
2009,08,19,01,59,15.40
2009,08,19,02,00,15.40
2009,08,19,02,01,15.30
2009,08,19,02,02,15.30
2009,08,19,02,03,15.30
2009,08,19,02,04,15.30
2009,08,19,02,05,15.30
2009,08,19,02,06,15.30
2009,08,19,02,07,15.30
2009,08,19,02,08,15.20
2009,08,19,02,09,15.20
2009,08,19,02,10,15.20
2009,08,19,02,11,15.20
2009,08,19,02,12,15.20
2009,08,19,02,13,15.10
2009,08,19,02,14,15.10
2009,08,19,02,15,15.10
2009,08,19,02,16,15.10
2009,08,19,02,17,15.10
2009,08,19,02,18,15.00
2009,08,19,02,19,15.00
2009,08,19,02,20,15.00
2009,08,19,02,21,15.00
2009,08,19,02,22,15.00
2009,08,19,02,23,15.00
2009,08,19,02,24,15.00
2009,08,19,02,25,15.00
2009,08,19,02,26,15.00
2009,08,19,02,27,15.00
2009,08,19,02,28,15.00
2009,08,19,02,29,15.00
2009,08,19,02,30,15.00
2009,08,19,02,31,15.00
2009,08,19,02,32,15.00
2009,08,19,02,33,15.00
2009,08,19,02,34,15.00
2009,08,19,02,35,15.00
2009,08,19,02,36,15.00
2009,08,19,02,37,15.00
2009,08,19,02,38,15.00
2009,08,19,02,39,15.00
2009,08,19,02,40,15.00
2009,08,19,02,41,15.00
2009,08,19,02,42,15.00
2009,08,19,02,43,15.00
2009,08,19,02,44,15.00
2009,08,19,02,45,15.00
2009,08,19,02,46,14.90
2009,08,19,02,47,14.90
2009,08,19,02,48,14.90
2009,08,19,02,49,14.90
2009,08,19,02,50,14.90
2009,08,19,02,51,14.90
2009,08,19,02,52,14.90
2009,08,19,02,53,14.90
2009,08,19,02,54,14.80
2009,08,19,02,55,14.80
2009,08,19,02,56,14.80
2009,08,19,02,57,14.80
2009,08,19,02,58,14.80
2009,08,19,02,59,14.80
2009,08,19,03,00,14.80
2009,08,19,03,01,14.80
2009,08,19,03,02,14.80
2009,08,19,03,03,14.70
2009,08,19,03,04,14.70
2009,08,19,03,05,14.70
2009,08,19,03,06,14.70
2009,08,19,03,07,14.70
2009,08,19,03,08,14.70
2009,08,19,03,09,14.70
2009,08,19,03,10,14.70
2009,08,19,03,11,14.70
2009,08,19,03,12,14.70
2009,08,19,03,13,14.70
2009,08,19,03,14,14.70
2009,08,19,03,15,14.70
2009,08,19,03,16,14.70
2009,08,19,03,17,14.70
2009,08,19,03,18,14.70
2009,08,19,03,19,14.70
2009,08,19,03,20,14.70
2009,08,19,03,21,14.70
2009,08,19,03,22,14.70
2009,08,19,03,23,14.60
2009,08,19,03,24,14.60
2009,08,19,03,25,14.60
2009,08,19,03,26,14.60
2009,08,19,03,27,14.60
2009,08,19,03,28,14.60
2009,08,19,03,29,14.60
2009,08,19,03,30,14.60
2009,08,19,03,31,14.60
2009,08,19,03,32,14.60
2009,08,19,03,33,14.60
2009,08,19,03,34,14.60
2009,08,19,03,35,14.60
2009,08,19,03,36,14.60
2009,08,19,03,37,14.60
2009,08,19,03,38,14.60
2009,08,19,03,39,14.60
2009,08,19,03,40,14.60
2009,08,19,03,41,14.60
2009,08,19,03,42,14.60
2009,08,19,03,43,14.60
2009,08,19,03,44,14.50
2009,08,19,03,45,14.60
2009,08,19,03,46,14.50
2009,08,19,03,47,14.50
2009,08,19,03,48,14.50
2009,08,19,03,49,14.50
2009,08,19,03,50,14.50
2009,08,19,03,51,14.50
2009,08,19,03,52,14.40
2009,08,19,03,53,14.40
2009,08,19,03,54,14.40
2009,08,19,03,55,14.40
2009,08,19,03,56,14.40
2009,08,19,03,57,14.40
2009,08,19,03,58,14.40
2009,08,19,03,59,14.40
2009,08,19,04,00,14.40
2009,08,19,04,01,14.40
2009,08,19,04,02,14.40
2009,08,19,04,03,14.50
2009,08,19,04,04,14.50
2009,08,19,04,05,14.50
2009,08,19,04,06,14.50
2009,08,19,04,07,14.60
2009,08,19,04,08,14.60
2009,08,19,04,09,14.60
2009,08,19,04,10,14.60
2009,08,19,04,11,14.60
2009,08,19,04,12,14.70
2009,08,19,04,13,14.70
2009,08,19,04,14,14.70
2009,08,19,04,15,14.70
2009,08,19,04,16,14.70
2009,08,19,04,17,14.70
2009,08,19,04,18,14.80
2009,08,19,04,19,14.80
2009,08,19,04,20,14.80
2009,08,19,04,21,14.90
2009,08,19,04,22,15.00
2009,08,19,04,23,15.00
2009,08,19,04,24,15.00
2009,08,19,04,25,15.00
2009,08,19,04,26,15.00
2009,08,19,04,27,15.00
2009,08,19,04,28,15.00
2009,08,19,04,29,15.10
2009,08,19,04,30,15.10
2009,08,19,04,31,15.10
2009,08,19,04,32,15.20
2009,08,19,04,33,15.20
2009,08,19,04,34,15.20
2009,08,19,04,35,15.20
2009,08,19,04,36,15.20
2009,08,19,04,37,15.20
2009,08,19,04,38,15.10
2009,08,19,04,39,15.10
2009,08,19,04,40,15.10
2009,08,19,04,41,15.10
2009,08,19,04,42,15.10
2009,08,19,04,43,15.10
2009,08,19,04,44,15.10
2009,08,19,04,45,15.00
2009,08,19,04,46,15.10
2009,08,19,04,47,15.00
2009,08,19,04,48,15.00
2009,08,19,04,49,15.00
2009,08,19,04,50,15.00
2009,08,19,04,51,15.00
2009,08,19,04,52,15.00
2009,08,19,04,53,15.00
2009,08,19,04,54,15.00
2009,08,19,04,55,15.00
2009,08,19,04,56,15.00
2009,08,19,04,57,15.00
2009,08,19,04,58,15.00
2009,08,19,04,59,15.00
2009,08,19,05,00,15.00
2009,08,19,05,01,15.00
2009,08,19,05,02,15.00
2009,08,19,05,03,15.00
2009,08,19,05,04,15.00
2009,08,19,05,05,15.00
2009,08,19,05,06,15.00
2009,08,19,05,07,15.00
2009,08,19,05,08,15.00
2009,08,19,05,09,15.00
2009,08,19,05,10,15.00
2009,08,19,05,11,15.00
2009,08,19,05,12,15.00
2009,08,19,05,13,15.00
2009,08,19,05,14,15.00
2009,08,19,05,15,15.00
2009,08,19,05,16,15.00
2009,08,19,05,17,15.00
2009,08,19,05,18,15.00
2009,08,19,05,19,15.00
2009,08,19,05,20,15.00
2009,08,19,05,21,15.00
2009,08,19,05,22,15.00
2009,08,19,05,23,15.00
2009,08,19,05,24,14.90
2009,08,19,05,25,14.90
2009,08,19,05,26,14.90
2009,08,19,05,27,14.90
2009,08,19,05,28,14.90
2009,08,19,05,29,14.80
2009,08,19,05,30,14.80
2009,08,19,05,31,14.80
2009,08,19,05,32,14.80
2009,08,19,05,33,14.80
2009,08,19,05,34,14.80
2009,08,19,05,35,14.80
2009,08,19,05,36,14.80
2009,08,19,05,37,14.80
2009,08,19,05,38,14.80
2009,08,19,05,39,14.80
2009,08,19,05,40,14.80
2009,08,19,05,41,14.80
2009,08,19,05,42,14.70
2009,08,19,05,43,14.70
2009,08,19,05,44,14.70
2009,08,19,05,45,14.70
2009,08,19,05,46,14.70
2009,08,19,05,47,14.70
2009,08,19,05,48,14.70
2009,08,19,05,49,14.70
2009,08,19,05,50,14.70
2009,08,19,05,51,14.60
2009,08,19,05,52,14.60
2009,08,19,05,53,14.60
2009,08,19,05,54,14.60
2009,08,19,05,55,14.60
2009,08,19,05,56,14.60
2009,08,19,05,57,14.60
2009,08,19,05,58,14.60
2009,08,19,05,59,14.60
2009,08,19,06,00,14.60
2009,08,19,06,01,14.50
2009,08,19,06,02,14.50
2009,08,19,06,03,14.50
2009,08,19,06,04,14.50
2009,08,19,06,05,14.50
2009,08,19,06,06,14.50
2009,08,19,06,07,14.50
2009,08,19,06,08,14.50
2009,08,19,06,09,14.40
2009,08,19,06,10,14.40
2009,08,19,06,11,14.40
2009,08,19,06,12,14.40
2009,08,19,06,13,14.40
2009,08,19,06,14,14.40
2009,08,19,06,15,14.40
2009,08,19,06,16,14.40
2009,08,19,06,17,14.40
2009,08,19,06,18,14.40
2009,08,19,06,19,14.30
2009,08,19,06,20,14.30
2009,08,19,06,21,14.30
2009,08,19,06,22,14.30
2009,08,19,06,23,14.30
2009,08,19,06,24,14.30
2009,08,19,06,25,14.30
2009,08,19,06,26,14.30
2009,08,19,06,27,14.30
2009,08,19,06,28,14.30
2009,08,19,06,29,14.30
2009,08,19,06,30,14.30
2009,08,19,06,31,14.30
2009,08,19,06,32,14.20
2009,08,19,06,33,14.20
2009,08,19,06,34,14.20
2009,08,19,06,35,14.20
2009,08,19,06,36,14.20
2009,08,19,06,37,14.20
2009,08,19,06,38,14.20
2009,08,19,06,39,14.20
2009,08,19,06,40,14.20
2009,08,19,06,41,14.20
2009,08,19,06,42,14.20
2009,08,19,06,43,14.20
2009,08,19,06,44,14.20
2009,08,19,06,45,14.20
2009,08,19,06,46,14.20
2009,08,19,06,47,14.20
2009,08,19,06,48,14.20
2009,08,19,06,49,14.20
2009,08,19,06,50,14.20
2009,08,19,06,51,14.20
2009,08,19,06,52,14.20
2009,08,19,06,53,14.20
2009,08,19,06,54,14.20
2009,08,19,06,55,14.20
2009,08,19,06,56,14.10
2009,08,19,06,57,14.10
2009,08,19,06,58,14.20
2009,08,19,06,59,14.20
2009,08,19,07,00,14.20
2009,08,19,07,01,14.20
2009,08,19,07,02,14.20
2009,08,19,07,03,14.20
2009,08,19,07,04,14.20
2009,08,19,07,05,14.20
2009,08,19,07,06,14.30
2009,08,19,07,07,14.20
2009,08,19,07,08,14.30
2009,08,19,07,09,14.30
2009,08,19,07,10,14.30
2009,08,19,07,11,14.30
2009,08,19,07,12,14.30
2009,08,19,07,13,14.30
2009,08,19,07,14,14.30
2009,08,19,07,15,14.30
2009,08,19,07,16,14.30
2009,08,19,07,17,14.30
2009,08,19,07,18,14.30
2009,08,19,07,19,14.30
2009,08,19,07,20,14.30
2009,08,19,07,21,14.40
2009,08,19,07,22,14.40
2009,08,19,07,23,14.40
2009,08,19,07,24,14.40
2009,08,19,07,25,14.50
2009,08,19,07,26,14.50
2009,08,19,07,27,14.50
2009,08,19,07,28,14.50
2009,08,19,07,29,14.50
2009,08,19,07,30,14.60
2009,08,19,07,31,14.60
2009,08,19,07,32,14.70
2009,08,19,07,33,14.70
2009,08,19,07,34,14.80
2009,08,19,07,35,14.90
2009,08,19,07,36,15.00
2009,08,19,07,37,15.00
2009,08,19,07,38,15.00
2009,08,19,07,39,15.00
2009,08,19,07,40,15.00
2009,08,19,07,41,15.10
2009,08,19,07,42,15.30
2009,08,19,07,43,15.40
2009,08,19,07,44,15.50
2009,08,19,07,45,15.60
2009,08,19,07,46,15.80
2009,08,19,07,47,15.90
2009,08,19,07,48,16.10
2009,08,19,07,49,16.20
2009,08,19,07,50,16.20
2009,08,19,07,51,16.30
2009,08,19,07,52,16.30
2009,08,19,07,53,16.40
2009,08,19,07,54,16.50
2009,08,19,07,55,16.60
2009,08,19,07,56,16.70
2009,08,19,07,57,16.80
2009,08,19,07,58,16.80
2009,08,19,07,59,16.90
2009,08,19,08,00,16.90
2009,08,19,08,01,16.90
2009,08,19,08,02,17.00
2009,08,19,08,03,17.10
2009,08,19,08,04,17.10
2009,08,19,08,05,17.20
2009,08,19,08,06,17.30
2009,08,19,08,07,17.40
2009,08,19,08,08,17.50
2009,08,19,08,09,17.60
2009,08,19,08,10,17.60
2009,08,19,08,11,17.70
2009,08,19,08,12,17.70
2009,08,19,08,13,17.80
2009,08,19,08,14,17.90
2009,08,19,08,15,17.90
2009,08,19,08,16,18.00
2009,08,19,08,17,18.10
2009,08,19,08,18,18.20
2009,08,19,08,19,18.30
2009,08,19,08,20,18.40
2009,08,19,08,21,18.50
2009,08,19,08,22,18.60
2009,08,19,08,23,18.60
2009,08,19,08,24,18.70
2009,08,19,08,25,18.90
2009,08,19,08,26,19.00
2009,08,19,08,27,19.10
2009,08,19,08,28,19.20
2009,08,19,08,29,19.30
2009,08,19,08,30,19.40
2009,08,19,08,31,19.50
2009,08,19,08,32,19.60
2009,08,19,08,33,19.70
2009,08,19,08,34,19.80
2009,08,19,08,35,19.80
2009,08,19,08,36,19.90
2009,08,19,08,37,19.90
2009,08,19,08,38,20.00
2009,08,19,08,39,20.00
2009,08,19,08,40,20.00
2009,08,19,08,41,20.00
2009,08,19,08,42,20.00
2009,08,19,08,43,20.10
2009,08,19,08,44,20.10
2009,08,19,08,45,20.20
2009,08,19,08,46,20.30
2009,08,19,08,47,20.40
2009,08,19,08,48,20.50
2009,08,19,08,49,20.60
2009,08,19,08,50,20.70
2009,08,19,08,51,20.80
2009,08,19,08,52,20.90
2009,08,19,08,53,21.00
2009,08,19,08,54,21.00
2009,08,19,08,55,21.10
2009,08,19,08,56,21.10
2009,08,19,08,57,21.20
2009,08,19,08,58,21.30
2009,08,19,08,59,21.30
2009,08,19,09,00,21.30
2009,08,19,09,01,21.40
2009,08,19,09,02,21.40
2009,08,19,09,03,21.40
2009,08,19,09,04,21.50
2009,08,19,09,05,21.50
2009,08,19,09,06,21.50
2009,08,19,09,07,21.50
2009,08,19,09,08,21.50
2009,08,19,09,09,21.60
2009,08,19,09,10,21.60
2009,08,19,09,11,21.60
2009,08,19,09,12,21.60
2009,08,19,09,13,21.60
2009,08,19,09,14,21.60
2009,08,19,09,15,21.70
2009,08,19,09,16,21.70
2009,08,19,09,17,21.70
2009,08,19,09,18,21.70
2009,08,19,09,19,21.70
2009,08,19,09,20,21.80
2009,08,19,09,21,21.80
2009,08,19,09,22,21.80
2009,08,19,09,23,21.80
2009,08,19,09,24,21.80
2009,08,19,09,25,21.80
2009,08,19,09,26,21.80
2009,08,19,09,27,21.80
2009,08,19,09,28,21.80
2009,08,19,09,29,21.80
2009,08,19,09,30,21.80
2009,08,19,09,31,21.80
2009,08,19,09,32,21.80
2009,08,19,09,33,21.80
2009,08,19,09,34,21.80
2009,08,19,09,35,21.80
2009,08,19,09,36,21.90
2009,08,19,09,37,21.90
2009,08,19,09,38,22.00
2009,08,19,09,39,22.10
2009,08,19,09,40,22.10
2009,08,19,09,41,22.20
2009,08,19,09,42,22.20
2009,08,19,09,43,22.30
2009,08,19,09,44,22.30
2009,08,19,09,45,22.40
2009,08,19,09,46,22.40
2009,08,19,09,47,22.50
2009,08,19,09,48,22.50
2009,08,19,09,49,22.60
2009,08,19,09,50,22.60
2009,08,19,09,51,22.60
2009,08,19,09,52,22.60
2009,08,19,09,53,22.60
2009,08,19,09,54,22.60
2009,08,19,09,55,22.60
2009,08,19,09,56,22.70
2009,08,19,09,57,22.70
2009,08,19,09,58,22.70
2009,08,19,09,59,22.70
2009,08,19,10,00,22.80
2009,08,19,10,01,22.80
2009,08,19,10,02,22.80
2009,08,19,10,03,22.90
2009,08,19,10,04,22.90
2009,08,19,10,05,22.90
2009,08,19,10,06,23.00
2009,08,19,10,07,23.00
2009,08,19,10,08,23.10
2009,08,19,10,09,23.10
2009,08,19,10,10,23.10
2009,08,19,10,11,23.10
2009,08,19,10,12,23.20
2009,08,19,10,13,23.20
2009,08,19,10,14,23.20
2009,08,19,10,15,23.20
2009,08,19,10,16,23.30
2009,08,19,10,17,23.30
2009,08,19,10,18,23.30
2009,08,19,10,19,23.30
2009,08,19,10,20,23.40
2009,08,19,10,21,23.40
2009,08,19,10,22,23.40
2009,08,19,10,23,23.40
2009,08,19,10,24,23.50
2009,08,19,10,25,23.50
2009,08,19,10,26,23.50
2009,08,19,10,27,23.50
2009,08,19,10,28,23.50
2009,08,19,10,29,23.50
2009,08,19,10,30,23.50
2009,08,19,10,31,23.60
2009,08,19,10,32,23.60
2009,08,19,10,33,23.60
2009,08,19,10,34,23.60
2009,08,19,10,35,23.50
2009,08,19,10,36,23.50
2009,08,19,10,37,23.50
2009,08,19,10,38,23.50
2009,08,19,10,39,23.50
2009,08,19,10,40,23.50
2009,08,19,10,41,23.50
2009,08,19,10,42,23.50
2009,08,19,10,43,23.40
2009,08,19,10,44,23.40
2009,08,19,10,45,23.40
2009,08,19,10,46,23.40
2009,08,19,10,47,23.40
2009,08,19,10,48,23.40
2009,08,19,10,49,23.40
2009,08,19,10,50,23.40
2009,08,19,10,51,23.40
2009,08,19,10,52,23.40
2009,08,19,10,53,23.40
2009,08,19,10,54,23.50
2009,08,19,10,55,23.50
2009,08,19,10,56,23.50
2009,08,19,10,57,23.60
2009,08,19,10,58,23.60
2009,08,19,10,59,23.70
2009,08,19,11,00,23.70
2009,08,19,11,01,23.70
2009,08,19,11,02,23.70
2009,08,19,11,03,23.70
2009,08,19,11,04,23.70
2009,08,19,11,05,23.80
2009,08,19,11,06,23.80
2009,08,19,11,07,23.80
2009,08,19,11,08,23.80
2009,08,19,11,09,23.80
2009,08,19,11,10,23.80
2009,08,19,11,11,23.80
2009,08,19,11,12,23.80
2009,08,19,11,13,23.80
2009,08,19,11,14,23.80
2009,08,19,11,15,23.90
2009,08,19,11,16,23.90
2009,08,19,11,17,24.00
2009,08,19,11,18,24.00
2009,08,19,11,19,24.10
2009,08,19,11,20,24.10
2009,08,19,11,21,24.10
2009,08,19,11,22,24.20
2009,08,19,11,23,24.20
2009,08,19,11,24,24.20
2009,08,19,11,25,24.20
2009,08,19,11,26,24.20
2009,08,19,11,27,24.20
2009,08,19,11,28,24.20
2009,08,19,11,29,24.30
2009,08,19,11,30,24.30
2009,08,19,11,31,24.30
2009,08,19,11,32,24.30
2009,08,19,11,33,24.40
2009,08,19,11,34,24.40
2009,08,19,11,35,24.40
2009,08,19,11,36,24.40
2009,08,19,11,37,24.40
2009,08,19,11,38,24.40
2009,08,19,11,39,24.40
2009,08,19,11,40,24.50
2009,08,19,11,41,24.50
2009,08,19,11,42,24.60
2009,08,19,11,43,24.60
2009,08,19,11,44,24.70
2009,08,19,11,45,24.70
2009,08,19,11,46,24.70
2009,08,19,11,47,24.80
2009,08,19,11,48,24.80
2009,08,19,11,49,24.90
2009,08,19,11,50,24.90
2009,08,19,11,51,24.90
2009,08,19,11,52,24.90
2009,08,19,11,53,24.90
2009,08,19,11,54,24.90
2009,08,19,11,55,24.80
2009,08,19,11,56,24.80
2009,08,19,11,57,24.90
2009,08,19,11,58,24.90
2009,08,19,11,59,24.90
2009,08,19,12,00,24.90
2009,08,19,12,01,24.90
2009,08,19,12,02,25.00
2009,08,19,12,03,25.10
2009,08,19,12,04,25.10
2009,08,19,12,05,25.20
2009,08,19,12,06,25.20
2009,08,19,12,07,25.30
2009,08,19,12,08,25.30
2009,08,19,12,09,25.40
2009,08,19,12,10,25.40
2009,08,19,12,11,25.40
2009,08,19,12,12,25.50
2009,08,19,12,13,25.40
2009,08,19,12,14,25.40
2009,08,19,12,15,25.50
2009,08,19,12,16,25.50
2009,08,19,12,17,25.50
2009,08,19,12,18,25.40
2009,08,19,12,19,25.40
2009,08,19,12,20,25.40
2009,08,19,12,21,25.40
2009,08,19,12,22,25.50
2009,08,19,12,23,25.50
2009,08,19,12,24,25.60
2009,08,19,12,25,25.60
2009,08,19,12,26,25.60
2009,08,19,12,27,25.70
2009,08,19,12,28,25.70
2009,08,19,12,29,25.70
2009,08,19,12,30,25.70
2009,08,19,12,31,25.70
2009,08,19,12,32,25.70
2009,08,19,12,33,25.80
2009,08,19,12,34,25.80
2009,08,19,12,35,25.80
2009,08,19,12,36,25.80
2009,08,19,12,37,25.80
2009,08,19,12,38,25.80
2009,08,19,12,39,25.80
2009,08,19,12,40,25.70
2009,08,19,12,41,25.70
2009,08,19,12,42,25.70
2009,08,19,12,43,25.70
2009,08,19,12,44,25.70
2009,08,19,12,45,25.70
2009,08,19,12,46,25.70
2009,08,19,12,47,25.80
2009,08,19,12,48,25.80
2009,08,19,12,49,25.80
2009,08,19,12,50,25.80
2009,08,19,12,51,25.80
2009,08,19,12,52,25.80
2009,08,19,12,53,25.80
2009,08,19,12,54,25.80
2009,08,19,12,55,25.80
2009,08,19,12,56,25.80
2009,08,19,12,57,25.80
2009,08,19,12,58,25.80
2009,08,19,12,59,25.80
2009,08,19,13,00,25.80
2009,08,19,13,01,25.90
2009,08,19,13,02,25.90
2009,08,19,13,03,25.90
2009,08,19,13,04,25.90
2009,08,19,13,05,25.90
2009,08,19,13,06,26.00
2009,08,19,13,07,26.00
2009,08,19,13,08,26.10
2009,08,19,13,09,26.10
2009,08,19,13,10,26.20
2009,08,19,13,11,26.20
2009,08,19,13,12,26.20
2009,08,19,13,13,26.20
2009,08,19,13,14,26.30
2009,08,19,13,15,26.30
2009,08,19,13,16,26.30
2009,08,19,13,17,26.30
2009,08,19,13,18,26.30
2009,08,19,13,19,26.30
2009,08,19,13,20,26.30
2009,08,19,13,21,26.40
2009,08,19,13,22,26.40
2009,08,19,13,23,26.40
2009,08,19,13,24,26.40
2009,08,19,13,25,26.40
2009,08,19,13,26,26.20
2009,08,19,13,27,26.10
2009,08,19,13,28,26.10
2009,08,19,13,29,26.00
2009,08,19,13,30,26.00
2009,08,19,13,31,26.10
2009,08,19,13,32,26.10
2009,08,19,13,33,26.10
2009,08,19,13,34,26.20
2009,08,19,13,35,26.20
2009,08,19,13,36,26.20
2009,08,19,13,37,26.10
2009,08,19,13,38,26.20
2009,08,19,13,39,26.20
2009,08,19,13,40,26.20
2009,08,19,13,41,26.30
2009,08,19,13,42,26.40
2009,08,19,13,43,26.50
2009,08,19,13,44,26.60
2009,08,19,13,45,26.60
2009,08,19,13,46,26.60
2009,08,19,13,47,26.60
2009,08,19,13,48,26.70
2009,08,19,13,49,26.70
2009,08,19,13,50,26.80
2009,08,19,13,51,26.80
2009,08,19,13,52,26.80
2009,08,19,13,53,26.80
2009,08,19,13,54,26.80
2009,08,19,13,55,26.80
2009,08,19,13,56,26.80
2009,08,19,13,57,26.80
2009,08,19,13,58,26.80
2009,08,19,13,59,26.70
2009,08,19,14,00,26.80
2009,08,19,14,01,26.80
2009,08,19,14,02,26.90
2009,08,19,14,03,27.00
2009,08,19,14,04,27.10
2009,08,19,14,05,27.20
2009,08,19,14,06,27.20
2009,08,19,14,07,27.30
2009,08,19,14,08,27.30
2009,08,19,14,09,27.30
2009,08,19,14,10,27.30
2009,08,19,14,11,27.30
2009,08,19,14,12,27.30
2009,08,19,14,13,27.30
2009,08,19,14,14,27.30
2009,08,19,14,15,27.30
2009,08,19,14,16,27.30
2009,08,19,14,17,27.30
2009,08,19,14,18,27.30
2009,08,19,14,19,27.30
2009,08,19,14,20,27.30
2009,08,19,14,21,27.30
2009,08,19,14,22,27.40
2009,08,19,14,23,27.50
2009,08,19,14,24,27.50
2009,08,19,14,25,27.60
2009,08,19,14,26,27.60
2009,08,19,14,27,27.70
2009,08,19,14,28,27.70
2009,08,19,14,29,27.80
2009,08,19,14,30,27.80
2009,08,19,14,31,27.80
2009,08,19,14,32,27.80
2009,08,19,14,33,27.80
2009,08,19,14,34,27.80
2009,08,19,14,35,27.80
2009,08,19,14,36,27.80
2009,08,19,14,37,27.80
2009,08,19,14,38,27.80
2009,08,19,14,39,27.90
2009,08,19,14,40,27.90
2009,08,19,14,41,28.00
2009,08,19,14,42,28.10
2009,08,19,14,43,28.10
2009,08,19,14,44,28.10
2009,08,19,14,45,28.10
2009,08,19,14,46,28.00
2009,08,19,14,47,27.90
2009,08,19,14,48,27.90
2009,08,19,14,49,27.80
2009,08,19,14,50,27.80
2009,08,19,14,51,27.80
2009,08,19,14,52,27.80
2009,08,19,14,53,27.80
2009,08,19,14,54,27.80
2009,08,19,14,55,27.80
2009,08,19,14,56,27.70
2009,08,19,14,57,27.70
2009,08,19,14,58,27.70
2009,08,19,14,59,27.70
2009,08,19,15,00,27.60
2009,08,19,15,01,27.60
2009,08,19,15,02,27.60
2009,08,19,15,03,27.60
2009,08,19,15,04,27.60
2009,08,19,15,05,27.60
2009,08,19,15,06,27.60
2009,08,19,15,07,27.60
2009,08,19,15,08,27.60
2009,08,19,15,09,27.60
2009,08,19,15,10,27.60
2009,08,19,15,11,27.60
2009,08,19,15,12,27.70
2009,08,19,15,13,27.70
2009,08,19,15,14,27.70
2009,08,19,15,15,27.70
2009,08,19,15,16,27.70
2009,08,19,15,17,27.70
2009,08,19,15,18,27.70
2009,08,19,15,19,27.70
2009,08,19,15,20,27.70
2009,08,19,15,21,27.70
2009,08,19,15,22,27.70
2009,08,19,15,23,27.70
2009,08,19,15,24,27.60
2009,08,19,15,25,27.60
2009,08,19,15,26,27.60
2009,08,19,15,27,27.60
2009,08,19,15,28,27.60
2009,08,19,15,29,27.50
2009,08,19,15,30,27.50
2009,08,19,15,31,27.50
2009,08,19,15,32,27.40
2009,08,19,15,33,27.40
2009,08,19,15,34,27.40
2009,08,19,15,35,27.40
2009,08,19,15,36,27.40
2009,08,19,15,37,27.40
2009,08,19,15,38,27.40
2009,08,19,15,39,27.40
2009,08,19,15,40,27.40
2009,08,19,15,41,27.40
2009,08,19,15,42,27.40
2009,08,19,15,43,27.40
2009,08,19,15,44,27.40
2009,08,19,15,45,27.40
2009,08,19,15,46,27.40
2009,08,19,15,47,27.40
2009,08,19,15,48,27.30
2009,08,19,15,49,27.30
2009,08,19,15,50,27.30
2009,08,19,15,51,27.20
2009,08,19,15,52,27.20
2009,08,19,15,53,27.20
2009,08,19,15,54,27.20
2009,08,19,15,55,27.20
2009,08,19,15,56,27.20
2009,08,19,15,57,27.20
2009,08,19,15,58,27.30
2009,08,19,15,59,27.30
2009,08,19,16,00,27.30
2009,08,19,16,01,27.30
2009,08,19,16,02,27.30
2009,08,19,16,03,27.30
2009,08,19,16,04,27.40
2009,08,19,16,05,27.40
2009,08,19,16,06,27.40
2009,08,19,16,07,27.40
2009,08,19,16,08,27.40
2009,08,19,16,09,27.40
2009,08,19,16,10,27.40
2009,08,19,16,11,27.50
2009,08,19,16,12,27.50
2009,08,19,16,13,27.50
2009,08,19,16,14,27.60
2009,08,19,16,15,27.60
2009,08,19,16,16,27.60
2009,08,19,16,17,27.60
2009,08,19,16,18,27.50
2009,08,19,16,19,27.60
2009,08,19,16,20,27.50
2009,08,19,16,21,27.60
2009,08,19,16,22,27.60
2009,08,19,16,23,27.60
2009,08,19,16,24,27.60
2009,08,19,16,25,27.60
2009,08,19,16,26,27.60
2009,08,19,16,27,27.70
2009,08,19,16,28,27.70
2009,08,19,16,29,27.70
2009,08,19,16,30,27.70
2009,08,19,16,31,27.70
2009,08,19,16,32,27.70
2009,08,19,16,33,27.70
2009,08,19,16,34,27.70
2009,08,19,16,35,27.70
2009,08,19,16,36,27.70
2009,08,19,16,37,27.70
2009,08,19,16,38,27.70
2009,08,19,16,39,27.70
2009,08,19,16,40,27.70
2009,08,19,16,41,27.70
2009,08,19,16,42,27.70
2009,08,19,16,43,27.70
2009,08,19,16,44,27.70
2009,08,19,16,45,27.70
2009,08,19,16,46,27.80
2009,08,19,16,47,27.80
2009,08,19,16,48,27.80
2009,08,19,16,49,27.80
2009,08,19,16,50,27.80
2009,08,19,16,51,27.70
2009,08,19,16,52,27.70
2009,08,19,16,53,27.70
2009,08,19,16,54,27.70
2009,08,19,16,55,27.70
2009,08,19,16,56,27.70
2009,08,19,16,57,27.70
2009,08,19,16,58,27.70
2009,08,19,16,59,27.70
2009,08,19,17,00,27.70
2009,08,19,17,01,27.70
2009,08,19,17,02,27.70
2009,08,19,17,03,27.70
2009,08,19,17,04,27.70
2009,08,19,17,05,27.70
2009,08,19,17,06,27.70
2009,08,19,17,07,27.70
2009,08,19,17,08,27.70
2009,08,19,17,09,27.70
2009,08,19,17,10,27.70
2009,08,19,17,11,27.70
2009,08,19,17,12,27.70
2009,08,19,17,13,27.70
2009,08,19,17,14,27.70
2009,08,19,17,15,27.70
2009,08,19,17,16,27.70
2009,08,19,17,17,27.70
2009,08,19,17,18,27.70
2009,08,19,17,19,27.70